Latest Weather Observations for Warwick

IDQ60901

Issued at 3:05 pm EST Wednesday 30 July 2014 (issued every 10 minutes, with the page automatically refreshed every 10 minutes)

About weather observations | Map of Brisbane area stations | Latest observations for Brisbane area | Other Formats
Station Details ID: 041525 Name: WARWICK Lat: -28.21 Lon: 152.10 Height: 475.4 m
Data from the previous 72 hours. | See also: Recent months at Warwick
Date/Time
EST
Tmp

°C
App
Tmp
°C
Dew
Point
°C
Rel
Hum
%
Delta-T

°C
Wind Press
QNH
hPa
Press
MSL
hPa
Rain
since
9 am
mm
Dir
 
Spd
km/h
Gust
km/h
Spd
kts
Gust
kts
30/03:00pm 22.4 17.9 -3.6 17 11.2 WNW 11 17 6 9 1018.8 1019.0 0.0
30/02:30pm 22.3 18.5 -0.9 21 10.5 W 9 20 5 11 1018.8 - 0.0
30/02:00pm 22.3 19.0 -0.1 22 10.3 WNW 7 15 4 8 1019.0 - 0.0
30/01:30pm 21.8 17.3 0.0 23 10.0 W 13 22 7 12 1019.3 - 0.0
30/01:00pm 21.6 18.9 0.0 23 9.9 NW 4 9 2 5 1019.8 - 0.0
30/12:30pm 20.7 17.6 -2.7 20 10.1 N 4 13 2 7 1020.4 - 0.0
30/12:00pm 20.0 17.3 -2.2 22 9.6 S 2 11 1 6 1021.1 1021.3 0.0
30/11:30am 19.6 16.4 -0.6 25 9.0 SE 6 9 3 5 1021.9 - 0.0
30/11:00am 18.1 15.4 0.2 30 8.0 W 4 11 2 6 1022.4 - 0.0
30/10:30am 16.2 13.8 -0.4 32 7.2 NNW 2 7 1 4 1022.9 - 0.0
30/10:00am 14.8 12.8 -0.4 35 6.5 S 0 0 0 0 1023.2 - 0.0
30/09:30am 11.9 9.9 -0.3 43 5.1 CALM 0 0 0 0 1023.4 - 0.0
30/09:00am 9.5 7.4 -0.7 49 4.1 CALM 0 0 0 0 1023.5 1023.8 0.0
30/08:30am 6.3 3.6 -6.0 41 4.2 CALM 0 0 0 0 1023.7 - 0.0
30/08:00am 3.1 - - - - CALM 0 0 0 0 1023.6 - 0.0
30/07:30am 0.9 - - - - CALM 0 0 0 0 1023.5 - 0.0
30/07:00am -3.1 - - - - CALM 0 0 0 0 1023.3 - 0.0
30/06:30am -2.4 - - - - CALM 0 0 0 0 1022.9 - 0.0
30/06:00am -2.7 - - - - W 0 0 0 0 1022.8 1023.0 0.0
30/05:30am -3.1 - - - - CALM 0 0 0 0 1022.7 - 0.0
30/05:00am -2.2 - - - - E 4 9 2 5 1022.3 - 0.0
30/04:30am -1.4 - - - - CALM 0 7 0 4 1022.0 - 0.0
30/04:00am -1.8 - - - - CALM 0 0 0 0 1022.1 - 0.0
30/03:30am -1.5 - - - - CALM 0 0 0 0 1022.1 - 0.0
30/03:00am -0.9 - - - - CALM 0 0 0 0 1022.2 1022.4 0.0
30/02:30am 0.9 -1.2 -0.6 90 0.6 CALM 0 0 0 0 1022.2 - 0.0
30/02:00am 0.9 - - - - CALM 0 0 0 0 1022.4 - 0.0
30/01:30am 0.6 - - - - CALM 0 0 0 0 1022.5 - 0.0
30/01:00am 0.8 - - - - CALM 0 0 0 0 1022.8 - 0.0
30/12:30am 1.5 -0.6 -1.0 83 0.9 SSW 0 0 0 0 1023.0 - 0.0
30/12:00am 4.3 1.0 -1.3 67 2.1 NE 6 7 3 4 1023.1 1023.4 0.0
 
Date/Time
EST
Tmp

°C
App
Tmp
°C
Dew
Point
°C
Rel
Hum
%
Delta-T

°C
Wind Press
QNH
hPa
Press
MSL
hPa
Rain
since
9 am
mm
Dir
 
Spd
km/h
Gust
km/h
Spd
kts
Gust
kts
29/11:30pm 4.3 1.7 -1.6 65 2.2 ENE 2 7 1 4 1022.8 - 0.0
29/11:00pm 3.1 1.0 -0.9 75 1.5 CALM 0 0 0 0 1023.0 - 0.0
29/10:30pm 4.6 2.2 -0.3 70 1.9 E 2 6 1 3 1022.9 - 0.0
29/10:00pm 4.8 0.8 -2.3 60 2.6 NE 9 11 5 6 1022.7 - 0.0
29/09:30pm 4.6 2.4 -1.9 63 2.4 CALM 0 0 0 0 1022.5 - 0.0
29/09:00pm 5.0 1.7 -1.3 64 2.4 NNE 6 7 3 4 1022.1 1022.3 0.0
29/08:30pm 6.9 4.6 -2.4 51 3.5 CALM 0 0 0 0 1021.8 - 0.0
29/08:00pm 6.1 4.0 -0.6 62 2.6 CALM 0 0 0 0 1021.6 - 0.0
29/07:30pm 10.6 7.2 -0.6 46 4.6 NW 7 9 4 5 1021.0 - 0.0
29/07:00pm 11.8 8.1 -0.1 44 5.0 WNW 9 11 5 6 1020.8 - 0.0
29/06:30pm 12.7 8.6 -0.4 40 5.5 WNW 11 13 6 7 1020.6 - 0.0
29/06:00pm 12.6 8.9 0.1 42 5.3 WNW 9 11 5 6 1020.4 1020.6 0.0
29/05:30pm 12.8 9.1 0.1 41 5.4 WNW 9 9 5 5 1020.3 - 0.0
29/05:00pm 16.8 13.6 0.7 33 7.2 W 7 9 4 5 1020.1 - 0.0
29/04:30pm 18.7 14.1 -1.2 26 8.7 W 13 19 7 10 1019.9 - 0.0
29/04:00pm 19.4 14.8 -1.4 24 9.1 W 13 20 7 11 1019.8 - 0.0
29/03:30pm 19.8 14.8 -1.4 24 9.3 W 15 22 8 12 1019.8 - 0.0
29/03:00pm 20.1 14.3 -1.5 23 9.5 WSW 19 24 10 13 1019.9 1020.1 0.0
29/02:30pm 20.3 15.7 -0.7 24 9.4 W 13 24 7 13 1020.1 - 0.0
29/02:00pm 19.7 14.9 0.3 27 8.8 W 15 26 8 14 1020.3 - 0.0
29/01:30pm 19.1 14.2 -0.5 26 8.7 WSW 15 20 8 11 1020.4 - 0.0
29/01:00pm 18.9 13.9 -0.9 26 8.7 SW 15 30 8 16 1020.6 - 0.0
29/12:30pm 18.7 13.0 -0.5 27 8.5 WSW 19 24 10 13 1021.1 - 0.0
29/12:00pm 18.1 13.3 0.2 30 8.0 SW 15 26 8 14 1021.8 1022.0 0.0
29/11:30am 17.9 13.0 -0.2 29 8.0 WSW 15 26 8 14 1022.2 - 0.0
29/11:00am 16.8 12.5 1.3 35 7.0 W 13 20 7 11 1022.9 - 0.0
29/10:30am 15.6 11.3 0.9 37 6.5 W 13 19 7 10 1023.2 - 0.0
29/10:00am 14.7 10.4 1.1 39 6.0 WSW 13 19 7 10 1023.4 - 0.0
29/09:30am 13.0 9.8 1.0 44 5.2 WSW 7 15 4 8 1023.6 - 0.0
29/09:00am 9.5 7.2 0.3 52 3.8 NW 2 7 1 4 1023.7 1024.0 0.0
29/08:30am 5.6 3.3 -2.5 56 3.0 CALM 0 0 0 0 1023.7 - 0.0
29/08:00am 2.9 - - - - CALM 0 0 0 0 1023.5 - 0.0
29/07:30am 0.3 - - - - CALM 0 0 0 0 1023.3 - 0.0
29/07:00am -2.3 - - - - CALM 0 0 0 0 1023.1 - 0.0
29/06:30am -2.8 - - - - CALM 0 0 0 0 1022.7 - 0.0
29/06:00am -2.7 - - - - CALM 0 0 0 0 1022.3 1022.5 0.0
29/05:30am -1.8 - - - - CALM 0 0 0 0 1021.9 - 0.0
29/05:00am -1.3 - - - - CALM 0 0 0 0 1021.6 - 0.0
29/04:30am -2.3 - - - - CALM 0 0 0 0 1021.5 - 0.0
29/04:00am -1.1 - - - - CALM 0 0 0 0 1021.3 - 0.0
29/03:30am -1.2 - - - - CALM 0 0 0 0 1021.3 - 0.0
29/03:00am -0.6 - - - - CALM 0 0 0 0 1021.3 1021.6 0.0
29/02:30am 1.8 -0.4 -1.2 80 1.1 CALM 0 0 0 0 1021.4 - 0.0
29/02:00am 0.9 - - - - CALM 0 0 0 0 1021.8 - 0.0
29/01:30am 0.0 - - - - WNW 2 6 1 3 1021.9 - 0.0
29/01:00am -0.3 - - - - CALM 0 0 0 0 1022.1 - 0.0
29/12:30am 1.4 -0.8 -1.4 82 1.0 CALM 0 0 0 0 1022.2 - 0.0
29/12:00am 2.2 0.1 -1.1 79 1.2 CALM 0 0 0 0 1022.4 1022.6 0.0
 
Date/Time
EST
Tmp

°C
App
Tmp
°C
Dew
Point
°C
Rel
Hum
%
Delta-T

°C
Wind Press
QNH
hPa
Press
MSL
hPa
Rain
since
9 am
mm
Dir
 
Spd
km/h
Gust
km/h
Spd
kts
Gust
kts
28/11:30pm 2.1 0.0 -0.6 82 1.0 CALM 0 0 0 0 1022.7 - 0.0
28/11:00pm 2.5 -0.8 -1.6 74 1.5 ENE 6 11 3 6 1022.8 - 0.0
28/10:30pm 3.9 1.7 -1.8 66 2.1 CALM 0 0 0 0 1022.8 - 0.0
28/10:00pm 4.5 1.9 -1.7 64 2.3 ENE 2 6 1 3 1022.9 - 0.0
28/09:30pm 5.6 2.0 -1.9 58 2.8 NE 7 9 4 5 1022.9 - 0.0
28/09:00pm 5.2 1.7 -1.4 62 2.5 ENE 7 9 4 5 1022.8 1023.0 0.0
28/08:30pm 6.0 3.9 -1.0 61 2.7 CALM 0 0 0 0 1022.6 - 0.0
28/08:00pm 9.5 6.7 -0.3 50 4.0 W 4 7 2 4 1022.3 - 0.0
28/07:30pm 11.7 8.1 0.7 47 4.7 W 9 11 5 6 1022.2 - 0.0
28/07:00pm 12.3 9.0 0.3 43 5.1 W 7 11 4 6 1021.6 - 0.0
28/06:30pm 12.6 9.0 0.7 44 5.1 W 9 13 5 7 1021.4 - 0.0
28/06:00pm 13.3 9.7 0.9 42 5.4 W 9 11 5 6 1021.2 1021.5 0.0
28/05:30pm 13.7 10.7 1.8 44 5.3 W 7 9 4 5 1021.1 - 0.0
28/05:00pm 16.1 12.6 1.1 36 6.7 W 9 13 5 7 1020.9 - 0.0
28/04:30pm 17.9 13.4 -0.2 29 8.0 WNW 13 17 7 9 1020.5 - 0.0
28/04:00pm 18.6 14.0 -1.1 26 8.6 W 13 19 7 10 1020.3 - 0.0
28/03:30pm 19.1 14.5 -0.8 26 8.8 WNW 13 24 7 13 1020.3 - 0.0
28/03:00pm 18.7 14.1 -1.3 26 8.7 WNW 13 20 7 11 1020.3 1020.5 0.0
28/02:30pm 18.6 13.1 -1.9 25 8.8 WNW 17 24 9 13 1020.6 - 0.0
28/02:00pm 18.7 14.0 -1.7 25 8.8 W 13 22 7 12 1020.9 - 0.0
28/01:30pm 17.9 12.7 -0.2 29 8.0 WNW 17 24 9 13 1021.4 - 0.0
28/01:00pm 18.6 13.2 -1.5 25 8.7 W 17 28 9 15 1021.9 - 0.0
28/12:30pm 17.9 13.4 -0.2 29 8.0 W 13 24 7 13 1022.2 - 0.0
28/12:00pm 17.2 12.1 0.6 32 7.4 W 17 30 9 16 1022.9 1023.1 0.0
28/11:30am 16.4 11.9 1.9 37 6.6 W 15 26 8 14 1023.4 - 0.0
28/11:00am 16.3 11.5 2.4 39 6.4 NNW 17 26 9 14 1023.8 - 0.0
28/10:30am 15.3 9.9 2.6 42 5.8 WNW 20 28 11 15 1024.3 - 0.0
28/10:00am 14.9 13.5 5.4 53 4.6 NNW 2 13 1 7 1024.6 - 0.0
28/09:30am 11.3 9.1 3.6 59 3.5 SSW 4 11 2 6 1024.6 - 0.0
28/09:00am 8.5 6.6 2.7 67 2.5 E 2 7 1 4 1024.5 1024.7 0.0
28/08:30am 6.3 3.7 1.1 69 2.1 ENE 4 7 2 4 1024.5 - 0.0
28/08:00am 3.1 1.1 0.0 80 1.2 CALM 0 0 0 0 1024.5 - 0.0
28/07:30am 0.9 -1.2 -0.5 90 0.5 CALM 0 6 0 3 1024.1 - 0.0
28/07:00am -0.2 - - - - W 6 7 3 4 1023.6 - 0.0
28/06:30am -1.2 - - - - CALM 0 0 0 0 1023.1 - 0.0
28/06:00am -1.7 - - - - CALM 0 0 0 0 1022.9 1023.1 0.0
28/05:30am -1.8 - - - - CALM 0 0 0 0 1022.9 - 0.0
28/05:00am -1.4 - - - - CALM 0 0 0 0 1023.1 - 0.0
28/04:30am -1.0 - - - - ENE 7 9 4 5 1023.1 - 0.0
28/04:00am -1.1 - - - - CALM 0 0 0 0 1023.2 - 0.0
28/03:30am 1.4 -0.5 0.3 92 0.4 CALM 0 0 0 0 1023.3 - 0.0
28/03:00am 1.2 -0.8 -0.4 89 0.6 CALM 0 0 0 0 1023.4 1023.7 0.0
28/02:30am -0.3 - - - - CALM 0 0 0 0 1023.2 - 0.0
28/02:00am 0.4 - - - - CALM 0 0 0 0 1023.2 - 0.0
28/01:30am 1.9 0.0 0.6 91 0.5 CALM 0 0 0 0 1023.4 - 0.0
28/01:00am 2.6 0.6 0.0 83 1.0 CALM 0 0 0 0 1023.7 - 0.0
28/12:30am 4.3 2.3 -0.1 73 1.7 CALM 0 0 0 0 1023.7 - 0.0
28/12:00am 4.0 2.1 0.7 79 1.3 CALM 0 0 0 0 1023.9 1024.2 0.0
 
Date/Time
EST
Tmp

°C
App
Tmp
°C
Dew
Point
°C
Rel
Hum
%
Delta-T

°C
Wind Press
QNH
hPa
Press
MSL
hPa
Rain
since
9 am
mm
Dir
 
Spd
km/h
Gust
km/h
Spd
kts
Gust
kts
27/11:30pm 4.0 2.2 1.5 84 1.0 CALM 0 7 0 4 1024.2 - 0.0
27/11:00pm 3.6 1.9 1.6 87 0.8 CALM 0 0 0 0 1024.1 - 0.0
27/10:30pm 4.3 1.7 1.0 79 1.3 N 4 7 2 4 1024.1 - 0.0
27/10:00pm 5.8 2.5 0.3 68 2.2 ENE 7 15 4 8 1024.1 - 0.0
27/09:30pm 6.7 4.4 0.5 64 2.5 NE 2 6 1 3 1024.1 - 0.0
27/09:00pm 6.9 5.1 1.3 67 2.3 CALM 0 6 0 3 1024.1 1024.3 0.0
27/08:30pm 7.1 5.2 0.4 62 2.7 CALM 0 0 0 0 1024.2 - 0.0
27/08:00pm 9.0 6.6 2.0 61 3.0 WNW 4 7 2 4 1023.7 - 0.0
27/07:30pm 12.1 9.8 0.3 44 5.0 WNW 2 7 1 4 1023.6 - 0.0
27/07:00pm 10.6 7.6 2.1 55 3.7 W 7 9 4 5 1023.4 - 0.0
27/06:30pm 11.1 8.3 1.9 53 4.0 WSW 6 7 3 4 1023.0 - 0.0
27/06:00pm 12.8 8.5 1.3 45 5.0 SW 13 17 7 9 1022.8 1023.0 0.0
27/05:30pm 13.5 9.8 2.1 46 5.1 WSW 11 15 6 8 1022.6 - 0.0
27/05:00pm 16.7 11.3 -1.0 30 7.6 WSW 17 24 9 13 1022.2 - 0.0
27/04:30pm 18.3 12.8 -2.1 25 8.7 WSW 17 22 9 12 1021.8 - 0.0
27/04:00pm 19.4 13.6 -1.8 24 9.2 WSW 19 24 10 13 1021.4 - 0.0
27/03:30pm 19.9 13.7 -3.3 20 9.8 WSW 20 28 11 15 1021.2 - 0.0

Latest Capital City Observations: Canberra | Sydney | Melbourne | Brisbane | Adelaide | Perth | Hobart | Darwin

Other Formats:

Comma delimited format used in spreadsheet applications
http://www.bom.gov.au/fwo/IDQ60901/IDQ60901.94555.axf

JavaScript Object Notation format (JSON) in row-major order
http://www.bom.gov.au/fwo/IDQ60901/IDQ60901.94555.json